Погода в Мироновке

Погода в Мироновке : погода сейчас, прогноз погоды и архив. Всё, что Вы хотите узнать о погоде в Мироновке!

Хотите узнать прогноз погоды в Мироновке? Тогда Вам сюда: Погода в Мироновке

Поиск расширенной информации на нашем сайте:

Другие новости

Новости СМИ2

Главная страница сайта

Новости сайта

03.07.2017

Напоминаем, что на нашем специализированном сайте Метеоцентр.Азия вы можете получить высокодетализированные автоматические прогнозы погоды по пунктам России, СНГ и мира в авиационном формате (включающие направление и скорость ветра, видимость, явления погоды, количество и форму облачности, нижнюю и верхнюю границу облачности).


Погода в Мироновке - сегодня

Время (UTC), дата Ветер
(°,м/с) 
Видим.   Явления Облачность Т
(°С)
Тd
(°С)
f(%) Тe
(°С)
Pmin
(гПа)
dP
(гПа)
Po
(мм)
O2
(г/м3)
Тmin Tmax R s Состояние
почвы
18 17.02.18 240 (ЮЗ) 14000 м    ясно 
-1.8 -4.6 81 -3  1023.7  0.2  753  306           
21 17.02.18 250 (З) 9000 м  дымка  ясно 
-3 -5 86 -4  1023.2  -0.5  753  307           
00 18.02.18 270 (З) 1500 м  дымка  10/10 330 м 
[St]
-3.6 -4.1 96 -6  1023.5  0.2  753  308           
03 18.02.18 230 (ЮЗ) 0500 м  переохл. туман  ?/?  
-3.2 -3.3 99 -4  1022.8  -0.6  752  307           
06 18.02.18 180 (Ю) 0300 м  переохл. туман  ?/?  
-4.7 -4.7 100 -4  1023  752  309  -5.1      равномерный
сухой снег
100% 
09 18.02.18 250 (З) 6000 м  дымка{туман}  10/0 верхняя 
[Cc]
-1.8 -3.6 87 -3  1022.6  -0.1  752  306           
12 18.02.18 240 (ЮЗ) 15000 м  {туман}  10/0 средняя 
[Ac und]
+1.4 -2.1 77 +2  1022  -0.4  752  302           
15 18.02.18 280 (З) 19000 м    10/8 800 м средняя 
[Sc|Ac und]
+1.1 -4.2 68 +2  1021.7  -0.3  752  302           
18 18.02.18 тихо ()   18000 м    9/0 средняя 
[Ac trans]
-0.6 -4.4 75 -1  1022.4  0.5  752  304           
21 18.02.18 280 (З) 12000 м    10/0 средняя 
[Ac und]
-1.1 -3.6 83 -1  1022.5  0.1  752  305           
00 19.02.18 340 (С) 9000 м  слаб. снег  10/10 500 м 
[Frnb|Ns]
-0.9 -3.1 85 -2  1023.1  0.6  753  305           
03 19.02.18 300 (СЗ) 17000 м  {снег}  5/5 1000 м 
[Sc]
-2.4 -6 76 -3  1023.3  0.1  753  307           
06 19.02.18 280 (З) 13000 м  {снег}  10/10 600 м 
[Sc]
-3.8 -6.3 83 -5  1024.5  1.1  754  309  -4.5    0.0     
09 19.02.18 300 (СЗ) 16000 м    10/8 700 м средняя 
[Sc|Ac und]
-2.5 -6.5 74 -5  1025.4  0.9  754  307           
12 19.02.18 280 (З) 20000 м    10/10 630 м кучево-дожд. 
[Cb calv]
-2 -7.4 66 -5  1025.3  754  307           
15 19.02.18 300 (СЗ) 16000 м    10/10 960 м 
[Sc]
-2.1 -6 75 -3  1025.3  754  307           
18 19.02.18 280 (З) 16000 м    10/5 600 м средняя 
[Sc|Ac und]
-3.4 -7 76 -5  1025.7  0.3  755  309           
21 19.02.18 240 (ЮЗ) 23000 м    10/8 1200 м средняя 
[Sc|Ac und]
-1.8 -6.7 69 -3  1025.3  -0.3  754  307           
00 20.02.18 260 (З) 22000 м    10/10 1050 м 
[Sc]
-2.2 -6.9 70 -3  1025.4  0.1  754  307           
03 20.02.18 150 (ЮВ) 1500 м  в посл. час туман  ясно 
+0.4 +0.1 98 -1  1007.8  -2.1  742  298           
06 20.02.18 180 (Ю) 5000 м  дымка  10/10 300 м 
[St]
+1 +0.5 96 -1  1011.3  744  299  +1      равномерный
мокрый или
старый снег
100% 
09 20.02.18 260 (З) 13000 м  слаб. снег  10/0 средняя 
[As op]
-3 -6.4 77 -4  1026.4  0.5  755  308           
12 20.02.18 260 (З) 20000 м  {снег}  4/4 600 м 
[Cu Sc]
-0.6 -4.7 74 -1  1025.5  -0.7  755  305      0.0     
15 20.02.18 260 (З) 20000 м    3/3 600 м 
[Sc]
-0.6 -5.8 68 -1  1025  -0.5  754  305           
18 20.02.18 тихо ()   18000 м    10/10 1200 м 
[Sc]
-2.4 -6.4 74 -2  1025.3  0.2  754  307    +1.5  0.0     
Время (UTC), дата Ветер
(°,м/с) 
Видим.   Явления Облачность Т
(°С)
Тd
(°С)
f(%) Тe
(°С)
Pmin
(гПа)
dP
(гПа)
Po
(мм)
O2
(г/м3)
Тmin Tmax R s Состояние
почвы

Для получения пояснительной информации подведите курсор к названию столбца.

ПОГОДА в Мироновке - архив

Всё, что Вы хотите узнать о погоде в Мироновке - удобно и подробно!

Выберите нужную дату (начиная с 1 января 2015* года) и нажмите кнопку "Найти".
Будут отображены архивные сводки погоды по пункту Мироновка, начиная с указанной даты.


Отображать данные в формате CSV (для использования в таблицах Excel)


Внимание! Наш архив погоды предназначен исключительно для личного некоммерческого использования в познавательных целях. Если Вам необходимы официальные справки о состоянии погоды (для производственных, юридических, коммерческих и т.п. целей), обращайтесь в органы Росгидромета.

*Примечание: данная дата относится к архиву по метеостанциям СССР (Россия, СНГ, Балтия).
Архив по метеостанциям Зарубежной Европы и Азии (кроме Китая) хранится 10 дней, по другим регионам земного шара (Китай, Африка, Америка, Австралия, Океания) - 1 день.

Мироновка - район местоположения метеостанции


Название, широта, долгота, высота метеостанции:
Мироновка 49.7°ш. 31°д. 153 м над ур. моря [Украина]

Дополнительная информация

В oтличие oт бoльшинства пoгoдных сайтoв мы публикуем пoдрoбную метеoинфoрмацию в детальнoм прoфессиoнальнoм фoрмате.

Характеристики температуры и влажнoсти вoздуха измеряются на высoте 2 м в тени вдали oт зданий и деревьев.
Скoрoсть ветра измеряется на высoте 10 м (на урoвне рoста челoвека скoрoсть ветра ниже в 1.5-2 раза). Если метеoстанция нахoдится в гoрoде или в лесу, тo скoрoсть ветра занижена на 2-4 м/с пo сравнению с oткрытым местoм. Скoрoсть ветра над акватoриями крупных рек и oзёр, а также на вершинах хoлмoв на 2-5 м/с выше, чем в oбычных услoвиях.
Атмoсфернoе давление в разных тoчках местнoсти мoжет значительнo oтличаться oт давления на метеoстанции, в зависимoсти oт услoвий рельефа (при пoдъёме на 10 м давление пoнижается примернo на 1 мм рт.ст.).